When you browse on this site, cookies collect data to enhance your experience and personalize the content and advertising you see.
Visit our Privacy Policy to learn more. By continuing to use the site, you agree to this use of cookies and data.
  • In Schweiz
  • Länderverzeichnis
  • Für 7 Tage
  • Wassertemperatur
  • Wetterkarte
  • Widgets
  • user-avatar
    Anmelden

    Stündliche Wetter Tarin Kowt

    Heute, 28 Januar, Dienstag

    Zeit Temperatur Niederschläge Wind Luftdruck Luftfeuchtigkeit
    00:00 -2°C° 0 mm 2 m/S 614 mmHg 64%
    01:00 -2°C° 0 mm 2 m/S 614 mmHg 63%
    02:00 -3°C° 0 mm 2 m/S 614 mmHg 62%
    03:00 -3°C° 0 mm 2 m/S 614 mmHg 60%
    04:00 -5°C° 0 mm 3 m/S 614 mmHg 59%
    05:00 -5°C° 0 mm 3 m/S 614 mmHg 58%
    06:00 -5°C° 0 mm 3 m/S 614 mmHg 57%
    07:00 -4°C° 0 mm 2 m/S 614 mmHg 55%
    08:00 -4°C° 0 mm 3 m/S 614 mmHg 50%
    09:00 -2°C° 0 mm 3 m/S 614 mmHg 45%
    10:00 -1°C° 0 mm 3 m/S 615 mmHg 40%
    11:00 -1°C° 0 mm 2 m/S 614 mmHg 38%
    12:00 +1°C° 0 mm 2 m/S 614 mmHg 36%
    13:00 +2°C° 0 mm 2 m/S 614 mmHg 34%
    14:00 +2°C° 0 mm 2 m/S 613 mmHg 35%
    15:00 +2°C° 0 mm 2 m/S 613 mmHg 35%
    16:00 +2°C° 0 mm 2 m/S 613 mmHg 36%
    17:00 +1°C° 0 mm 2 m/S 613 mmHg 40%
    18:00 -1°C° 0 mm 2 m/S 614 mmHg 45%
    19:00 0°C° 0 mm 1 m/S 614 mmHg 50%
    20:00 0°C° 0 mm 1 m/S 614 mmHg 51%
    21:00 0°C° 0 mm 1 m/S 615 mmHg 52%
    22:00 -1°C° 0 mm 1 m/S 615 mmHg 53%
    23:00 -1°C° 0 mm 1 m/S 615 mmHg 53%

    Morgen, 29 Januar, Mittwoch

    Zeit Temperatur Niederschläge Wind Luftdruck Luftfeuchtigkeit
    00:00 -1°C° 0 mm 1 m/S 615 mmHg 53%
    01:00 -1°C° 0 mm 1 m/S 615 mmHg 53%
    02:00 -4°C° 0 mm 2 m/S 615 mmHg 52%
    03:00 -4°C° 0 mm 2 m/S 615 mmHg 51%
    04:00 -4°C° 0 mm 2 m/S 615 mmHg 51%
    05:00 -5°C° 0 mm 2 m/S 615 mmHg 49%
    06:00 -5°C° 0 mm 2 m/S 615 mmHg 48%
    07:00 -6°C° 0 mm 3 m/S 616 mmHg 47%
    08:00 -4°C° 0 mm 2 m/S 616 mmHg 42%
    09:00 -3°C° 0 mm 2 m/S 616 mmHg 38%
    10:00 -2°C° 0 mm 2 m/S 617 mmHg 33%
    11:00 -2°C° 0 mm 2 m/S 616 mmHg 32%
    12:00 -1°C° 0 mm 2 m/S 616 mmHg 31%
    13:00 +1°C° 0 mm 2 m/S 616 mmHg 30%
    14:00 +1°C° 0 mm 2 m/S 616 mmHg 31%
    15:00 +1°C° 0 mm 2 m/S 616 mmHg 32%
    16:00 +1°C° 0 mm 2 m/S 616 mmHg 33%
    17:00 -1°C° 0 mm 2 m/S 616 mmHg 37%
    18:00 -2°C° 0 mm 2 m/S 616 mmHg 42%
    19:00 -3°C° 0 mm 2 m/S 617 mmHg 46%
    20:00 -3°C° 0 mm 2 m/S 617 mmHg 47%
    21:00 -1°C° 0 mm 1 m/S 617 mmHg 47%
    22:00 -1°C° 0 mm 1 m/S 617 mmHg 48%
    23:00 -1°C° 0 mm 1 m/S 617 mmHg 46%

    übermorgen, 30 Januar, Donnerstag

    Zeit Temperatur Niederschläge Wind Luftdruck Luftfeuchtigkeit
    00:00 -4°C° 0 mm 2 m/S 617 mmHg 45%
    01:00 -4°C° 0 mm 2 m/S 617 mmHg 43%
    02:00 -4°C° 0 mm 2 m/S 617 mmHg 42%
    03:00 -4°C° 0 mm 2 m/S 617 mmHg 41%
    04:00 -4°C° 0 mm 2 m/S 616 mmHg 40%
    05:00 -4°C° 0 mm 2 m/S 616 mmHg 39%
    06:00 -4°C° 0 mm 2 m/S 616 mmHg 37%
    07:00 -4°C° 0 mm 2 m/S 616 mmHg 36%
    08:00 -3°C° 0 mm 2 m/S 616 mmHg 32%
    09:00 -2°C° 0 mm 2 m/S 617 mmHg 27%
    10:00 -1°C° 0 mm 3 m/S 617 mmHg 23%
    11:00 +1°C° 0 mm 2 m/S 616 mmHg 22%
    12:00 +2°C° 0 mm 2 m/S 615 mmHg 22%
    13:00 +3°C° 0 mm 2 m/S 615 mmHg 21%
    14:00 +3°C° 0 mm 2 m/S 615 mmHg 23%
    15:00 +3°C° 0 mm 2 m/S 614 mmHg 26%
    16:00 +3°C° 0 mm 2 m/S 614 mmHg 28%
    17:00 +2°C° 0 mm 2 m/S 614 mmHg 32%
    18:00 +2°C° 0 mm 1 m/S 614 mmHg 36%
    19:00 +1°C° 0 mm 1 m/S 614 mmHg 41%
    20:00 +1°C° 0 mm 1 m/S 614 mmHg 40%
    21:00 0°C° 0 mm 1 m/S 614 mmHg 39%
    22:00 0°C° 0 mm 1 m/S 614 mmHg 39%
    23:00 0°C° 0 mm 1 m/S 614 mmHg 38%

    31 Januar, Freitag

    Zeit Temperatur Niederschläge Wind Luftdruck Luftfeuchtigkeit
    00:00 0°C° 0 mm 1 m/S 614 mmHg 38%
    01:00 0°C° 0 mm 1 m/S 614 mmHg 37%
    02:00 0°C° 0 mm 1 m/S 614 mmHg 38%
    03:00 0°C° 0 mm 1 m/S 614 mmHg 39%
    04:00 0°C° 0 mm 1 m/S 613 mmHg 39%
    05:00 0°C° 0 mm 1 m/S 614 mmHg 39%
    06:00 0°C° 0 mm 1 m/S 614 mmHg 40%
    07:00 0°C° 0 mm 1 m/S 615 mmHg 40%
    08:00 +1°C° 0 mm 1 m/S 615 mmHg 36%
    09:00 +2°C° 0 mm 1 m/S 616 mmHg 32%
    10:00 +3°C° 0 mm 1 m/S 616 mmHg 28%
    11:00 +4°C° 0 mm 1 m/S 616 mmHg 28%
    12:00 +4°C° 0 mm 1 m/S 615 mmHg 27%
    13:00 +5°C° 0 mm 1 m/S 615 mmHg 27%
    14:00 +5°C° 0 mm 1 m/S 615 mmHg 28%
    15:00 +5°C° 0 mm 1 m/S 615 mmHg 29%
    16:00 +5°C° 0 mm 1 m/S 615 mmHg 30%
    17:00 +4°C° 0 mm 1 m/S 615 mmHg 35%
    18:00 +3°C° 0 mm 1 m/S 616 mmHg 41%
    19:00 +2°C° 0 mm 1 m/S 616 mmHg 46%
    20:00 +2°C° 0 mm 1 m/S 616 mmHg 47%
    21:00 +1°C° 0 mm 1 m/S 616 mmHg 49%
    22:00 +1°C° 0 mm 1 m/S 616 mmHg 50%
    23:00 +1°C° 0 mm 1 m/S 616 mmHg 50%

    1 Februar, Samstag

    Zeit Temperatur Niederschläge Wind Luftdruck Luftfeuchtigkeit
    00:00 -2°C° 0 mm 2 m/S 616 mmHg 49%
    01:00 -2°C° 0 mm 2 m/S 616 mmHg 49%
    02:00 -2°C° 0 mm 2 m/S 616 mmHg 49%
    03:00 -3°C° 0 mm 2 m/S 616 mmHg 49%
    04:00 -3°C° 0 mm 2 m/S 616 mmHg 49%
    05:00 -3°C° 0 mm 2 m/S 616 mmHg 47%
    06:00 -3°C° 0 mm 2 m/S 617 mmHg 46%
    07:00 -3°C° 0 mm 2 m/S 617 mmHg 45%
    08:00 -2°C° 0 mm 2 m/S 617 mmHg 40%
    09:00 -1°C° 0 mm 2 m/S 618 mmHg 35%
    10:00 0°C° 0 mm 3 m/S 618 mmHg 30%
    11:00 +2°C° 0 mm 2 m/S 617 mmHg 29%
    12:00 +3°C° 0 mm 2 m/S 617 mmHg 28%
    13:00 +4°C° 0 mm 2 m/S 617 mmHg 27%
    14:00 +4°C° 0 mm 2 m/S 617 mmHg 28%
    15:00 +4°C° 0 mm 2 m/S 617 mmHg 29%
    16:00 +5°C° 0 mm 2 m/S 617 mmHg 29%
    17:00 +4°C° 0 mm 2 m/S 617 mmHg 34%
    18:00 +2°C° 0 mm 2 m/S 617 mmHg 39%
    19:00 +1°C° 0 mm 2 m/S 617 mmHg 44%
    20:00 +1°C° 0 mm 2 m/S 617 mmHg 44%
    21:00 +1°C° 0 mm 2 m/S 617 mmHg 44%
    22:00 -1°C° 0 mm 2 m/S 617 mmHg 45%
    23:00 -1°C° 0 mm 2 m/S 617 mmHg 44%

    2 Februar, Sonntag

    Zeit Temperatur Niederschläge Wind Luftdruck Luftfeuchtigkeit
    00:00 -1°C° 0 mm 2 m/S 617 mmHg 43%
    01:00 -1°C° 0 mm 2 m/S 617 mmHg 42%
    02:00 -2°C° 0 mm 2 m/S 617 mmHg 42%
    03:00 -2°C° 0 mm 2 m/S 616 mmHg 41%
    04:00 -2°C° 0 mm 2 m/S 616 mmHg 41%
    05:00 -2°C° 0 mm 2 m/S 617 mmHg 40%
    06:00 -2°C° 0 mm 2 m/S 617 mmHg 40%
    07:00 -2°C° 0 mm 2 m/S 617 mmHg 39%
    08:00 +1°C° 0 mm 2 m/S 618 mmHg 35%
    09:00 +2°C° 0 mm 2 m/S 618 mmHg 31%
    10:00 +4°C° 0 mm 2 m/S 618 mmHg 28%
    11:00 +4°C° 0 mm 3 m/S 618 mmHg 28%
    12:00 +4°C° 0 mm 3 m/S 617 mmHg 29%
    13:00 +5°C° 0 mm 3 m/S 617 mmHg 29%
    14:00 +6°C° 0 mm 2 m/S 617 mmHg 31%
    15:00 +6°C° 0 mm 2 m/S 617 mmHg 32%
    16:00 +6°C° 0 mm 2 m/S 616 mmHg 34%
    17:00 +5°C° 0 mm 2 m/S 616 mmHg 39%
    18:00 +4°C° 0 mm 2 m/S 616 mmHg 43%
    19:00 +3°C° 0 mm 2 m/S 616 mmHg 48%
    20:00 +2°C° 0 mm 2 m/S 616 mmHg 48%
    21:00 +2°C° 0 mm 2 m/S 616 mmHg 49%
    22:00 +2°C° 0 mm 2 m/S 616 mmHg 49%
    23:00 +2°C° 0 mm 2 m/S 616 mmHg 49%
    Mehr zeigen